This is the latest recevied weather packets stored in our database for station/object KI5QWQ. If no packets are shown the sender has not sent any weather packets the latest 1 day(s).
| Time | Temp. | Humidity | Pressure | Rain* | Wind** | Luminosity | Snow |
|---|---|---|---|---|---|---|---|
| 1778015735 | - | - | - | 0 mm | 0.45 m/s, 162° | - | - |
| 1778015431 | - | - | - | 0 mm | 1.34 m/s, 233° | - | - |
| 1778015128 | - | - | - | 0 mm | 2.24 m/s, 152° | - | - |
| 1778014826 | - | - | - | 0 mm | 0.89 m/s, 204° | - | - |
| 1778014524 | - | - | - | 0 mm | 0.45 m/s, 208° | - | - |
| 1778014221 | - | - | - | 0 mm | 0.89 m/s, 223° | - | - |
| 1778013918 | - | - | - | 0 mm | 1.34 m/s, 208° | - | - |
| 1778013615 | - | - | - | 0 mm | 0.45 m/s, 231° | - | - |
| 1778013312 | - | - | - | 0 mm | 0.89 m/s, 197° | - | - |
| 1778013009 | - | - | - | 0 mm | 0.45 m/s, 180° | - | - |
| 1778012705 | - | - | - | 0 mm | 0.89 m/s, 266° | - | - |
| 1778012401 | - | - | - | 0 mm | 0.89 m/s, 220° | - | - |
| 1778012098 | - | - | - | 0 mm | 1.34 m/s, 272° | - | - |
| 1778011795 | - | - | - | 0 mm | 1.34 m/s, 96° | - | - |
| 1778011493 | - | - | - | 0 mm | 0.45 m/s, 223° | - | - |
| 1778011189 | - | - | - | 0 mm | 0.45 m/s, 196° | - | - |
| 1778010886 | - | - | - | 0 mm | 1.79 m/s, 216° | - | - |
| 1778010583 | - | - | - | 0 mm | 0.89 m/s, 227° | - | - |
| 1778010281 | - | - | - | 0 mm | 1.79 m/s, 150° | - | - |
| 1778009981 | - | - | - | 0 mm | 0.89 m/s, 191° | - | - |
| 1778009678 | - | - | - | 0 mm | 0 m/s | - | - |
| 1778009376 | - | - | - | 0 mm | 0.89 m/s, 234° | - | - |
| 1778009074 | - | - | - | 0 mm | 0.89 m/s, 229° | - | - |
| 1778008771 | - | - | - | 0 mm | 0.89 m/s, 192° | - | - |
| 1778008470 | - | - | - | 0 mm | 0.45 m/s, 8° | - | - |
* Rain latest hour (hover to see other rain measurements)
** Current wind speed in m/s (hover to see current wind gust speed)